Rochester/St. Mary\'s Hospita, MN

8:47 PM CST on December 08, 2019 (GMT -0600)
Rochester/St. Mary\'s Hospita

Weather History for K9MN - October, 2019

Change the Weather History Date:

Friday, October 18, 2019

  Actual Average (KRST) Record (KRST)
Temperature  
Mean Temperature 54 °F 48 °F  
Max Temperature 66 °F 58 °F 84 °F (1950)
Min Temperature 42 °F 38 °F 17 °F (1972)
Degree Days  
Heating Degree Days 11 17  
Month to date heating degree days 259  
Since 1 July heating degree days 474  
Cooling Degree Days 0 0  
Month to date cooling degree days 4  
Year to date cooling degree days 583  
Growing Degree Days 4 (Base 50)    
Moisture  
Dew Point 39 °F    
Average Humidity 60    
Maximum Humidity 78    
Minimum Humidity 38    
Precipitation  
Precipitation 0.00 in 0.07 in 0.67 in (1928)
Month to date precipitation 1.42  
Year to date precipitation 29.06  
Snow  
Snow 0.00 in 0.00 in 3.90 in (1991)
Month to date snowfall 0.2  
Since 1 July snowfall 0.2  
Snow Depth -    
Sea Level Pressure  
Sea Level Pressure 29.76 in    
Wind  
Wind Speed 12 mph (SE)    
Max Wind Speed 25 mph    
Max Gust Speed 38 mph    
Visibility 10 miles    
Events      
T = Trace of Precipitation, MM = Missing Value Source: NWS Daily Summary

Daily Weather History Graph

Daily Weather History Graph

Search for Another Location

Airport or City:

Astronomy

Oct. 18, 2019 Rise Set
Actual Time 7:28 AM CDT 6:21 PM CDT
Civil Twilight 6:58 AM CDT 6:50 PM CDT
Nautical Twilight 6:25 AM CDT 7:24 PM CDT
Astronomical Twilight 5:51 AM CDT 7:57 PM CDT
Moon 9:30 PM CDT (10/18) 12:09 PM CDT (10/18)
Length of Visible Light 11h 51m
Length of Day
10h 53m
Waning Gibbous, 78% of the Moon is Illuminated
Oct 18
Waning Gibbous
Oct 21
Last Quarter
Oct 27
New
Nov 4
First Quarter
Nov 12
Full

Hourly Weather History & Observations

Time (CDT) Temp. Windchill Dew Point Humidity Pressure Visibility Wind Dir Wind Speed Gust Speed Precip Events Conditions
12:16 AM 43.7 °F 39.7 °F 35.1 °F 72% 29.93 in 10.0 mi ESE 6.9 mph - N/A   Clear
12:35 AM 43.3 °F 38.6 °F 35.1 °F 73% 29.92 in 10.0 mi ESE 8.1 mph - N/A   Clear
12:55 AM 43.2 °F 39.7 °F 35.1 °F 73% 29.92 in 10.0 mi SE 5.8 mph - N/A   Clear
1:15 AM 43.0 °F 38.2 °F 35.1 °F 74% 29.92 in 10.0 mi ESE 8.1 mph - N/A   Clear
1:16 AM 43.0 °F 38.2 °F 35.2 °F 74% 29.92 in 10.0 mi ESE 8.1 mph - N/A   Clear
1:35 AM 42.8 °F 38.6 °F 35.2 °F 75% 29.92 in 10.0 mi SE 6.9 mph - N/A   Clear
1:55 AM 42.8 °F 38.0 °F 35.2 °F 75% 29.92 in 10.0 mi SE 8.1 mph - N/A   Clear
2:15 AM 42.8 °F 38.6 °F 35.6 °F 76% 29.91 in 10.0 mi ESE 6.9 mph - N/A   Clear
2:16 AM 42.8 °F 38.6 °F 35.6 °F 76% 29.91 in 10.0 mi ESE 6.9 mph - N/A   Clear
2:35 AM 42.8 °F 38.0 °F 35.8 °F 76% 29.90 in 10.0 mi ESE 8.1 mph - N/A   Clear
2:36 AM 42.8 °F 38.0 °F 35.8 °F 76% 29.90 in 10.0 mi ESE 8.1 mph - N/A   Clear
2:55 AM 42.8 °F 37.5 °F 35.6 °F 76% 29.90 in 10.0 mi ESE 9.2 mph - N/A   Clear
3:15 AM 42.8 °F 37.5 °F 35.6 °F 76% 29.89 in 10.0 mi ESE 9.2 mph - N/A   Clear
3:35 AM 42.8 °F 37.5 °F 35.8 °F 76% 29.88 in 10.0 mi ESE 9.2 mph - N/A   Clear
3:36 AM 42.8 °F 37.0 °F 35.8 °F 76% 29.88 in 10.0 mi SE 10.4 mph 16.1 mph N/A   Clear
3:55 AM 42.8 °F 37.5 °F 35.6 °F 76% 29.88 in 10.0 mi ESE 9.2 mph - N/A   Clear
3:56 AM 42.8 °F 38.0 °F 35.6 °F 76% 29.88 in 10.0 mi ESE 8.1 mph - N/A   Clear
4:15 AM 43.0 °F 37.7 °F 35.6 °F 75% 29.88 in 10.0 mi SE 9.2 mph - N/A   Clear
4:35 AM 43.0 °F 36.8 °F 35.6 °F 75% 29.87 in 10.0 mi ESE 11.5 mph 16.1 mph N/A   Clear
4:55 AM 42.8 °F 37.5 °F 35.6 °F 76% 29.87 in 10.0 mi ESE 9.2 mph - N/A   Clear
4:56 AM 42.8 °F 37.0 °F 35.6 °F 76% 29.87 in 10.0 mi SE 10.4 mph - N/A   Clear
5:15 AM 42.8 °F 37.5 °F 35.8 °F 76% 29.87 in 10.0 mi ESE 9.2 mph - N/A   Clear
5:35 AM 42.8 °F 37.5 °F 35.8 °F 76% 29.87 in 10.0 mi ESE 9.2 mph - N/A   Clear
5:55 AM 42.8 °F 35.8 °F 36.0 °F 77% 29.86 in 10.0 mi ESE 13.8 mph 17.3 mph N/A   Clear
6:15 AM 42.8 °F 37.0 °F 36.3 °F 78% 29.86 in 10.0 mi ESE 10.4 mph 16.1 mph N/A   Clear
6:16 AM 42.8 °F 37.0 °F 36.3 °F 78% 29.86 in 10.0 mi SE 10.4 mph 16.1 mph N/A   Clear
6:35 AM 43.0 °F 36.4 °F 36.5 °F 78% 29.86 in 10.0 mi SE 12.7 mph 20.7 mph N/A   Clear
6:36 AM 43.2 °F 37.0 °F 36.5 °F 77% 29.85 in 10.0 mi SE 11.5 mph 20.7 mph N/A   Clear
6:55 AM 43.3 °F 37.7 °F 36.5 °F 77% 29.85 in 10.0 mi SE 10.4 mph 20.7 mph N/A   Clear
7:15 AM 43.7 °F 37.7 °F 36.7 °F 76% 29.84 in 10.0 mi ESE 11.5 mph 21.9 mph N/A   Clear
7:35 AM 43.9 °F 36.8 °F 36.7 °F 76% 29.83 in 10.0 mi ESE 15.0 mph 20.7 mph N/A   Clear
7:36 AM 43.9 °F 36.5 °F 36.7 °F 76% 29.83 in 10.0 mi SE 16.1 mph 20.7 mph N/A   Clear
7:55 AM 44.1 °F 37.7 °F 36.7 °F 75% 29.83 in 10.0 mi SE 12.7 mph 20.7 mph N/A   Clear
8:15 AM 44.6 °F 38.8 °F 36.7 °F 74% 29.83 in 10.0 mi SE 11.5 mph 21.9 mph N/A   Clear
8:35 AM 45.1 °F 38.4 °F 36.7 °F 72% 29.82 in 10.0 mi SE 15.0 mph 24.2 mph N/A   Clear
8:36 AM 45.1 °F 38.8 °F 36.7 °F 72% 29.82 in 10.0 mi SE 13.8 mph 24.2 mph N/A   Clear
8:55 AM 45.9 °F 39.7 °F 36.9 °F 71% 29.82 in 10.0 mi SE 13.8 mph 25.3 mph N/A   Clear
8:56 AM 45.9 °F 39.7 °F 36.9 °F 71% 29.82 in 10.0 mi SE 13.8 mph 25.3 mph N/A   Clear
9:15 AM 46.6 °F - 37.0 °F 69% 29.81 in 10.0 mi SE 11.5 mph 26.5 mph N/A   Clear
9:35 AM 47.8 °F - 37.6 °F 68% 29.81 in 10.0 mi SE 18.4 mph 25.3 mph N/A   Clear
9:55 AM 49.1 °F - 37.9 °F 65% 29.81 in 10.0 mi SE 19.6 mph 27.6 mph N/A   Clear
10:15 AM 49.1 °F - 38.3 °F 66% 29.81 in 10.0 mi SE 16.1 mph 26.5 mph N/A   Clear
10:16 AM 49.1 °F - 38.3 °F 66% 29.81 in 10.0 mi SE 19.6 mph 28.8 mph N/A   Clear
10:35 AM 50.4 °F - 38.8 °F 65% 29.80 in 10.0 mi SE 15.0 mph 26.5 mph N/A   Clear
10:55 AM 52.0 °F - 39.4 °F 62% 29.79 in 10.0 mi ESE 11.5 mph 24.2 mph N/A   Clear
11:16 AM 53.6 °F - 40.3 °F 61% 29.78 in 10.0 mi ESE 16.1 mph 24.2 mph N/A   Clear
11:35 AM 54.5 °F - 40.5 °F 59% 29.76 in 10.0 mi SE 19.6 mph 27.6 mph N/A   Clear
11:36 AM 54.5 °F - 40.5 °F 59% 29.76 in 10.0 mi SE 20.7 mph 27.6 mph N/A   Clear
11:55 AM 56.1 °F - 40.8 °F 57% 29.75 in 10.0 mi SE 19.6 mph 28.8 mph N/A   Clear
12:15 PM 58.1 °F - 41.0 °F 53% 29.74 in 10.0 mi SE 15.0 mph 26.5 mph N/A   Clear
12:35 PM 59.5 °F - 40.6 °F 50% 29.74 in 10.0 mi SE 15.0 mph 28.8 mph N/A   Clear
12:55 PM 59.9 °F - 40.1 °F 48% 29.72 in 10.0 mi SE 20.7 mph 34.5 mph N/A   Clear
12:56 PM 59.9 °F - 39.9 °F 48% 29.72 in 10.0 mi SE 19.6 mph 34.5 mph N/A   Clear
1:15 PM 60.8 °F - 40.1 °F 46% 29.71 in 10.0 mi SE 12.7 mph 27.6 mph N/A   Clear
1:16 PM 60.8 °F - 40.3 °F 47% 29.71 in 10.0 mi SE 15.0 mph 27.6 mph N/A   Clear
1:35 PM 61.2 °F - 40.5 °F 47% 29.70 in 10.0 mi SE 23.0 mph 33.4 mph N/A   Clear
1:55 PM 63.1 °F - 39.9 °F 42% 29.69 in 10.0 mi SE 15.0 mph 28.8 mph N/A   Clear
2:15 PM 64.8 °F - 39.0 °F 39% 29.68 in 10.0 mi SE 21.9 mph 32.2 mph N/A   Clear
2:16 PM 64.8 °F - 38.8 °F 38% 29.68 in 10.0 mi SE 18.4 mph 32.2 mph N/A   Clear
2:35 PM 64.9 °F - 39.6 °F 39% 29.66 in 10.0 mi SE 23.0 mph 34.5 mph N/A   Clear
2:36 PM 64.9 °F - 39.6 °F 39% 29.66 in 10.0 mi SE 25.3 mph 34.5 mph N/A   Clear
2:55 PM 65.7 °F - 39.7 °F 39% 29.65 in 10.0 mi SE 16.1 mph 33.4 mph N/A   Clear
3:15 PM 66.0 °F - 40.1 °F 39% 29.64 in 10.0 mi SE 18.4 mph 35.7 mph N/A   Clear
3:35 PM 66.2 °F - 40.6 °F 39% 29.64 in 10.0 mi SE 24.2 mph 38.0 mph N/A   Clear
3:36 PM 66.2 °F - 40.6 °F 39% 29.64 in 10.0 mi SE 21.9 mph 38.0 mph N/A   Clear
3:55 PM 66.4 °F - 41.4 °F 40% 29.64 in 10.0 mi SE 15.0 mph 29.9 mph N/A   Clear
3:56 PM 66.4 °F - 41.4 °F 40% 29.64 in 10.0 mi SE 15.0 mph 29.9 mph N/A   Clear
4:15 PM 66.4 °F - 41.0 °F 40% 29.64 in 10.0 mi SE 19.6 mph 38.0 mph N/A   Clear
4:35 PM 66.2 °F - 40.8 °F 40% 29.64 in 10.0 mi SE 21.9 mph 32.2 mph N/A   Clear
4:55 PM 65.8 °F - 40.5 °F 39% 29.64 in 10.0 mi SE 23.0 mph 34.5 mph N/A   Clear
4:56 PM 65.8 °F - 40.5 °F 39% 29.63 in 10.0 mi SE 20.7 mph 34.5 mph N/A   Clear
5:15 PM 65.3 °F - 40.8 °F 41% 29.63 in 10.0 mi SE 16.1 mph 26.5 mph N/A   Clear
5:16 PM 65.3 °F - 40.8 °F 41% 29.63 in 10.0 mi SE 18.4 mph 26.5 mph N/A   Clear
5:35 PM 64.9 °F - 40.3 °F 40% 29.62 in 10.0 mi SE 18.4 mph 31.1 mph N/A   Clear
5:55 PM 64.0 °F - 40.1 °F 41% 29.62 in 10.0 mi SE 18.4 mph 31.1 mph N/A   Clear
6:15 PM 62.8 °F - 40.8 °F 45% 29.62 in 10.0 mi SE 18.4 mph 29.9 mph N/A   Clear
6:16 PM 62.6 °F - 41.0 °F 45% 29.62 in 10.0 mi ESE 17.3 mph 25.3 mph N/A   Clear
6:35 PM 61.9 °F - 41.0 °F 46% 29.62 in 10.0 mi SE 17.3 mph 28.8 mph N/A   Clear
6:36 PM 61.9 °F - 41.2 °F 47% 29.62 in 10.0 mi SE 17.3 mph 28.8 mph N/A   Clear
6:55 PM 61.7 °F - 41.4 °F 47% 29.64 in 10.0 mi SE 15.0 mph 27.6 mph N/A   Clear
7:15 PM 60.8 °F - 41.7 °F 49% 29.65 in 10.0 mi SE 16.1 mph 21.9 mph N/A   Clear
7:35 PM 60.3 °F - 41.9 °F 51% 29.66 in 10.0 mi SSE 16.1 mph 24.2 mph N/A   Clear
7:36 PM 60.3 °F - 41.9 °F 51% 29.66 in 10.0 mi SSE 15.0 mph 21.9 mph N/A   Clear
7:55 PM 59.9 °F - 41.7 °F 51% 29.67 in 10.0 mi SE 16.1 mph 26.5 mph N/A   Clear
7:56 PM 59.9 °F - 41.7 °F 51% 29.67 in 10.0 mi SE 16.1 mph 26.5 mph N/A   Clear
8:15 PM 59.4 °F - 41.2 °F 51% 29.68 in 10.0 mi SSE 15.0 mph 24.2 mph N/A   Clear
8:35 PM 58.6 °F - 41.2 °F 52% 29.68 in 10.0 mi SSE 17.3 mph 24.2 mph N/A   Clear
8:55 PM 58.1 °F - 41.5 °F 54% 29.68 in 10.0 mi SE 15.0 mph 29.9 mph N/A   Clear
8:56 PM 58.1 °F - 41.5 °F 54% 29.67 in 10.0 mi SE 15.0 mph 29.9 mph N/A   Clear
9:15 PM 57.2 °F - 41.9 °F 57% 29.68 in 10.0 mi SE 17.3 mph 27.6 mph N/A   Scattered Clouds
9:16 PM 57.2 °F - 41.9 °F 57% 29.68 in 10.0 mi SE 16.1 mph 27.6 mph N/A   Scattered Clouds
9:35 PM 56.7 °F - 41.9 °F 58% 29.68 in 10.0 mi SE 15.0 mph 26.5 mph N/A   Scattered Clouds
9:55 PM 56.3 °F - 41.9 °F 59% 29.68 in 10.0 mi SE 15.0 mph 24.2 mph N/A   Mostly Cloudy
10:15 PM 55.8 °F - 41.9 °F 60% 29.68 in 10.0 mi SSE 16.1 mph 29.9 mph N/A   Scattered Clouds
10:16 PM 55.8 °F - 41.9 °F 60% 29.68 in 10.0 mi SSE 17.3 mph 29.9 mph N/A   Scattered Clouds
10:35 PM 55.4 °F - 42.1 °F 61% 29.68 in 10.0 mi SSE 12.7 mph 23.0 mph N/A   Clear
10:36 PM 55.4 °F - 42.1 °F 61% 29.68 in 10.0 mi SSE 11.5 mph 23.0 mph N/A   Clear
10:55 PM 55.0 °F - 42.1 °F 62% 29.68 in 10.0 mi SSE 15.0 mph 24.2 mph N/A   Scattered Clouds
11:15 PM 55.0 °F - 42.1 °F 62% 29.68 in 10.0 mi SSE 15.0 mph 27.6 mph N/A   Overcast
11:35 PM 55.0 °F - 42.1 °F 62% 29.67 in 10.0 mi SSE 17.3 mph 27.6 mph N/A   Mostly Cloudy
11:36 PM 55.0 °F - 42.1 °F 62% 29.67 in 10.0 mi SE 19.6 mph 33.4 mph N/A   Mostly Cloudy
11:55 PM 55.0 °F - 42.1 °F 62% 29.67 in 10.0 mi SSE 18.4 mph 31.1 mph N/A   Scattered Clouds
11:56 PM 55.0 °F - 42.1 °F 62% 29.67 in 10.0 mi SSE 16.1 mph 31.1 mph N/A   Scattered Clouds